TimeEDT,TemperatureF,Dew PointF,Humidity,Sea Level PressureIn,VisibilityMPH,Wind Direction,Wind SpeedMPH,Gust SpeedMPH,PrecipitationIn,Events,Conditions,WindDirDegrees,DateUTC
12:56 AM,37.0,35.1,93,29.65,7.0,South,9.2,-,N/A,,Overcast,190,2014-03-11 04:56:00
1:56 AM,37.9,35.1,89,29.61,6.0,SSE,6.9,-,0.00,,Overcast,160,2014-03-11 05:56:00
2:56 AM,37.9,36.0,93,29.58,7.0,South,8.1,-,N/A,,Overcast,180,2014-03-11 06:56:00
3:56 AM,39.0,36.0,89,29.55,9.0,South,9.2,-,N/A,,Overcast,180,2014-03-11 07:56:00
4:56 AM,39.0,35.1,86,29.53,9.0,SSW,9.2,-,N/A,,Clear,200,2014-03-11 08:56:00
5:56 AM,37.9,35.1,89,29.52,7.0,SSW,6.9,-,N/A,,Clear,200,2014-03-11 09:56:00
6:56 AM,37.0,35.1,93,29.53,6.0,SSW,3.5,-,N/A,,Clear,210,2014-03-11 10:56:00
7:56 AM,39.0,36.0,89,29.54,5.0,WSW,9.2,-,N/A,,Clear,250,2014-03-11 11:56:00
8:56 AM,44.1,37.0,76,29.56,8.0,West,9.2,-,N/A,,Clear,260,2014-03-11 12:56:00
9:56 AM,50.0,37.0,61,29.57,10.0,West,9.2,-,N/A,,Clear,270,2014-03-11 13:56:00
10:56 AM,52.0,34.0,50,29.57,10.0,West,10.4,-,N/A,,Clear,260,2014-03-11 14:56:00
11:56 AM,53.1,34.0,48,29.56,10.0,West,11.5,-,N/A,,Clear,260,2014-03-11 15:56:00
12:56 PM,55.0,33.1,43,29.55,10.0,West,10.4,20.7,N/A,,Clear,280,2014-03-11 16:56:00
1:56 PM,57.9,33.1,39,29.54,10.0,WNW,10.4,-,N/A,,Clear,290,2014-03-11 17:56:00
2:56 PM,52.0,35.1,53,29.55,10.0,SSW,10.4,-,N/A,,Clear,210,2014-03-11 18:56:00
3:56 PM,55.9,36.0,47,29.55,10.0,SSW,8.1,-,N/A,,Clear,210,2014-03-11 19:56:00
4:56 PM,55.9,35.1,45,29.56,10.0,SW,10.4,-,N/A,,Clear,220,2014-03-11 20:56:00
5:56 PM,51.1,34.0,52,29.59,10.0,SW,8.1,-,N/A,,Clear,230,2014-03-11 21:56:00
6:56 PM,45.0,32.0,60,29.63,10.0,West,3.5,-,N/A,,Clear,270,2014-03-11 22:56:00
7:56 PM,41.0,30.9,67,29.66,10.0,Calm,Calm,-,N/A,,Clear,0,2014-03-11 23:56:00
8:56 PM,37.0,28.9,73,29.68,10.0,Calm,Calm,-,N/A,,Clear,0,2014-03-12 00:56:00
9:56 PM,36.0,27.0,70,29.70,10.0,Calm,Calm,-,N/A,,Clear,0,2014-03-12 01:56:00
10:56 PM,35.1,28.0,76,29.71,10.0,Calm,Calm,-,N/A,,Clear,0,2014-03-12 02:56:00
11:56 PM,32.0,27.0,82,29.71,10.0,Calm,Calm,-,N/A,,Clear,0,2014-03-12 03:56:00